BM3FFG-1 Weather Reports


time (UTC)temp
F
wind
direction
speed
knots
gust
knots
rain 1hr
in
rain 24hr
in
rain mn
in
humidity
%
barometer
mb
20260508070943 87 0.0 0.0 0.00 0.00 0.00 57 963.5
20260508064942 87 0.0 0.0 0.00 0.00 0.00 59 963.6
20260508062943 87 0.0 0.0 0.00 0.00 0.00 58 963.8
20260508060943 86 0.0 0.0 0.00 0.00 0.00 59 963.9
20260508054948 87 0.0 0.0 0.00 0.00 0.00 58 964.0
20260508052942 87 0.0 0.0 0.00 0.00 0.00 59 964.2
20260508050943 86 0.0 0.0 0.00 0.00 0.00 60 964.6
20260508044942 86 0.0 0.0 0.00 0.00 0.00 63 964.7
20260508042943 85 0.0 0.0 0.00 0.00 0.00 64 964.9
20260508040943 85 0.0 0.0 0.00 0.00 0.00 63 965.1
20260508034943 85 0.0 0.0 0.00 0.00 0.00 59 965.4
20260508032943 85 0.0 0.0 0.00 0.00 0.00 61 965.7
20260508030943 85 0.0 0.0 0.00 0.00 0.00 61 965.9
20260508024943 84 0.0 0.0 0.00 0.00 0.00 64 966.1
20260508022943 83 0.0 0.0 0.00 0.00 0.00 66 966.3
20260508020943 82 0.0 0.0 0.00 0.00 0.00 67 966.6
20260508014943 82 0.0 0.0 0.00 0.00 0.00 68 966.7
20260508012943 81 0.0 0.0 0.00 0.00 0.00 69 966.7
20260508010942 80 0.0 0.0 0.00 0.00 0.00 69 966.7
20260508004943 80 0.0 0.0 0.00 0.00 0.00 70 966.6
20260508002943 81 0.0 0.0 0.00 0.00 0.00 72 966.4
20260508000943 80 0.0 0.0 0.00 0.00 0.00 73 966.3
20260507234942 80 0.0 0.0 0.00 0.00 0.00 74 966.4
20260507232943 80 0.0 0.0 0.00 0.00 0.00 74 966.1
20260507230943 80 0.0 0.0 0.00 0.00 0.00 74 966.0
20260507224943 80 0.0 0.0 0.00 0.00 0.00 75 965.7
20260507222943 80 0.0 0.0 0.00 0.00 0.00 75 965.7
20260507220943 80 0.0 0.0 0.00 0.00 0.00 75 965.5
20260507214943 80 0.0 0.0 0.00 0.00 0.00 75 965.5
20260507212943 80 0.0 0.0 0.00 0.00 0.00 75 965.5
20260507210943 80 0.0 0.0 0.00 0.00 0.00 73 965.5
20260507204943 80 0.0 0.0 0.00 0.00 0.00 73 965.3
20260507202943 80 0.0 0.0 0.00 0.00 0.00 73 965.3
20260507200942 80 0.0 0.0 0.00 0.00 0.00 73 965.2
20260507194943 80 0.0 0.0 0.00 0.00 0.00 73 965.0
20260507192942 80 0.0 0.0 0.00 0.00 0.00 73 964.9
20260507190943 80 0.0 0.0 0.00 0.00 0.00 72 964.8
20260507184943 80 0.0 0.0 0.00 0.00 0.00 72 964.6
20260507182942 81 0.0 0.0 0.00 0.00 0.00 71 964.7
20260507180943 81 0.0 0.0 0.00 0.00 0.00 71 964.8
20260507174943 81 0.0 0.0 0.00 0.00 0.00 71 964.9
20260507172942 81 0.0 0.0 0.00 0.00 0.00 70 965.0
20260507170943 81 0.0 0.0 0.00 0.00 0.00 70 965.0
20260507164943 81 0.0 0.0 0.00 0.00 0.00 70 965.1
20260507162943 81 0.0 0.0 0.00 0.00 0.00 70 965.2
20260507160942 81 0.0 0.0 0.00 0.00 0.00 69 965.4
20260507154943 81 0.0 0.0 0.00 0.00 0.00 69 965.5
20260507152943 82 0.0 0.0 0.00 0.00 0.00 69 965.7
20260507150943 82 0.0 0.0 0.00 0.00 0.00 69 965.7
20260507144943 82 0.0 0.0 0.00 0.00 0.00 68 965.8
20260507142943 82 0.0 0.0 0.00 0.00 0.00 68 965.8
20260507140943 82 0.0 0.0 0.00 0.00 0.00 67 965.7
20260507134943 82 0.0 0.0 0.00 0.00 0.00 67 965.5
20260507132943 83 0.0 0.0 0.00 0.00 0.00 66 965.6
20260507130943 83 0.0 0.0 0.00 0.00 0.00 65 965.4
20260507124942 83 0.0 0.0 0.00 0.00 0.00 64 965.5
20260507122943 83 0.0 0.0 0.00 0.00 0.00 63 965.5
20260507120943 83 0.0 0.0 0.00 0.00 0.00 62 965.3
20260507114943 83 0.0 0.0 0.00 0.00 0.00 63 965.1
20260507112943 83 0.0 0.0 0.00 0.00 0.00 63 964.7
20260507110942 83 0.0 0.0 0.00 0.00 0.00 62 964.6
20260507104943 84 0.0 0.0 0.00 0.00 0.00 62 964.2
20260507102943 84 0.0 0.0 0.00 0.00 0.00 63 964.1
20260507100943 84 0.0 0.0 0.00 0.00 0.00 63 964.0
20260507094942 84 0.0 0.0 0.00 0.00 0.00 63 963.7
20260507092943 85 0.0 0.0 0.00 0.00 0.00 63 963.4
20260507090943 85 0.0 0.0 0.00 0.00 0.00 64 963.2
20260507084943 86 0.0 0.0 0.00 0.00 0.00 65 962.9
20260507082943 87 0.0 0.0 0.00 0.00 0.00 65 962.8
20260507080942 87 0.0 0.0 0.00 0.00 0.00 64 962.7
20260507074943 87 0.0 0.0 0.00 0.00 0.00 61 962.7
20260507072942 87 0.0 0.0 0.00 0.00 0.00 60 962.8